Regional Weather Roundup
Issued by NWS Little Rock, AR

Home | Current Version | Previous Version | Text Only | Print | Product List | Glossary Off
Versions: 1 2 3 4 5 6 7 8 9 10 11 12 13 14 15 16 17 18 19 20 21 22 23 24 25 26 27 28 29 30 31 32 33 34 35 36 37 38 39 40 41 42 43 44 45 46 47 48 49 50

000
ASUS44 KLZK 060705
RWRLZK

WEATHER ROUNDUP FOR ARKANSAS
NATIONAL WEATHER SERVICE LITTLE ROCK AR
200 AM CDT WED MAY 06 2015

NOTE: "FAIR" INDICATES FEW OR NO CLOUDS BELOW 12,000 FEET WITH NO
SIGNIFICANT WEATHER AND/OR OBSTRUCTIONS TO VISIBILITY.

ARZ001-003-010-029-060800-
NORTHWEST ARKANSAS

CITY           SKY/WX    TMP DP  RH WIND       PRES   REMARKS
FAYETTEVILLE   CLOUDY    72  57  59 SE16G22   30.04S
FORT SMITH     CLOUDY    74  55  51 SE9       30.02S
HARRISON       MOCLDY    65  54  67 SE12      30.08F
BENTONVILLE    MOCLDY   N/A N/A N/A SE10      30.04F
ROGERS         MOCLDY    67  55  65 SE7       30.05F
SILOAM SPGS    CLOUDY    70  54  56 S10G21    30.04S
HIGHFILL       CLOUDY    69  54  58 SE8       30.03
$$

ARZ004-005-016-060800-
NORTH CENTRAL ARKANSAS

CITY           SKY/WX    TMP DP  RH WIND       PRES   REMARKS
BATESVILLE     CLEAR     70  52  52 SE7       30.10F
FLIPPIN        CLEAR     64  52  63 CALM      30.07F
MTN HOME       CLEAR     64  52  64 SE3       30.09F
$$

ARZ040-041-060800-
WEST CENTRAL ARKANSAS

CITY           SKY/WX    TMP DP  RH WIND       PRES   REMARKS
MENA           CLOUDY    73  61  64 SE8G21    30.06S
MOUNT IDA      MOCLDY    73  57  57 SE9G17    30.05S
$$

ARZ009-017-025-026-028-060800-
NORTHEAST ARKANSAS

CITY           SKY/WX    TMP DP  RH WIND       PRES   REMARKS
CORNING          N/A     63  54  72 SE5       30.12F
JONESBORO      CLEAR     56  53  90 CALM      30.11F
NEWPORT        CLEAR     67  55  65 SE10      30.11F
WALNUT RIDGE   CLEAR     64  50  59 SE6       30.11F
BLYTHEVILLE    CLEAR     67  54  63 S7        30.14F
$$

ARZ022-023-033-042-044-060800-
CENTRAL ARKANSAS

CITY           SKY/WX    TMP DP  RH WIND       PRES   REMARKS
LITTLE ROCK    PTCLDY    66  56  70 SE3       30.09F
N LITTLE ROCK    N/A     69  58  69 SE8       30.09F
JACKSONVILLE   CLEAR     64  55  74 E3        30.08F
SEARCY         CLEAR     65  55  70 SE3       30.11F
HOT SPRINGS    CLOUDY    72  57  59 VRB5      30.08S
RUSSELLVILLE   PTCLDY    68  56  65 SE5       30.07S
CLINTON        FAIR      57  55  94 CALM      30.11F
$$

ARZ036-060800-
EAST ARKANSAS

CITY           SKY/WX    TMP DP  RH WIND       PRES   REMARKS
WEST MEMPHIS   CLEAR     64  56  75 SE6       30.11F
$$

ARZ050-053-066-070-073-060800-
SOUTHWEST ARKANSAS

CITY           SKY/WX    TMP DP  RH WIND       PRES   REMARKS
ARKADELPHIA    PTSUNNY   65  65 100 CALM      30.08S
CAMDEN         CLEAR     64  57  77 CALM      30.07F
TEXARKANA      CLOUDY    70  63  78 S9        30.04F
EL DORADO      CLEAR     67  58  72 SE3       30.08F
DE QUEEN       CLOUDY    72  61  68 SE6       30.02S
$$

ARZ056-057-069-060800-
SOUTHEAST ARKANSAS

CITY           SKY/WX    TMP DP  RH WIND       PRES   REMARKS
PINE BLUFF     CLEAR     64  57  78 SE3       30.09F
STUTTGART      CLEAR     68  54  60 SE7       30.10F
MONTICELLO     CLEAR     67  57  70 CALM      30.09F

$$





USA.gov is the U.S. government's official web portal to all federal, state and local government web resources and services.